This demonstration page uses our WeatherBlox Daily Observations layout. Learn more.

38.88101, -77.10428

Hourly Observations for January 18, 2016

Temp ( °F °C ) Dew Point ( °F °C ) Humidity (%) Winds ( mph kmh ) Pressure ( in mb ) Visibility ( mi km ) Precip ( " mm )
12:52 am 00:52 Mostly Cloudy with Scattered Snow Showers 33 0.6 24 -4.4 70 70 W 9 15 29.83 1010 9 14.48406 0 0.0254
1:52 am 01:52 Mostly Cloudy with Scattered Snow Showers 32 0 21 -6.1 64 64 NW 17 28 29.85 1011 9 14.48406 0 0.0254
2:52 am 02:52 Mostly Cloudy with Scattered Snow Showers 31 -0.6 16 -8.9 54 54 NW 23 37 29.89 1012 9 14.48406 0 0.0254
3:52 am 03:52 Mostly Clear 26 -3.3 3 -16.1 37 37 WNW 22 35 29.93 1014 10 16.0934 0 0.0254
4:52 am 04:52 Clear 23 -5 6 -14.4 48 48 NW 17 28 29.97 1015 10 16.0934 0 0
5:52 am 05:52 Clear 20 -6.7 -1 -18.3 40 40 WNW 18 30 30.01 1016 10 16.0934 0 0
6:52 am 06:52 Mostly Clear 19 -7.2 -1 -18.3 41 41 WNW 23 37 30.03 1017 10 16.0934 0 0
7:52 am 07:52 Mostly Sunny 18 -7.8 -1 -18.3 43 43 NW 15 24 30.05 1018 10 16.0934 0 0
8:52 am 08:52 Mostly Sunny 19 -7.2 0 -17.8 43 43 WNW 20 31 30.07 1018 10 16.0934 0 0
9:52 am 09:52 Mostly Sunny 20 -6.7 1 -17.2 43 43 W 20 31 30.1 1019 10 16.0934 0 0
10:52 am 10:52 Mostly Sunny 22 -5.6 1 -17.2 40 40 NW 25 41 30.1 1019 10 16.0934 0 0
11:52 am 11:52 Partly Cloudy 24 -4.4 2 -16.7 38 38 WNW 17 28 30.09 1019 10 16.0934 0 0
12:52 pm 12:52 Mostly Sunny 24 -4.4 1 -17.2 36 36 WNW 21 33 30.06 1018 10 16.0934 0 0
1:52 pm 13:52 Partly Cloudy 24 -4.4 1 -17.2 36 36 WNW 14 22 30.06 1018 10 16.0934 0 0
2:52 pm 14:52 Mostly Sunny 24 -4.4 0 -17.8 35 35 NNW 20 31 30.08 1019 10 16.0934 0 0
3:52 pm 15:52 Mostly Sunny 23 -5 -1 -18.3 35 35 W 20 31 30.1 1019 10 16.0934 0 0
4:52 pm 16:52 Partly Cloudy 21 -6.1 -2 -18.9 36 36 W 16 26 30.13 1020 10 16.0934 0 0
5:52 pm 17:52 Mostly Clear 20 -6.7 -3 -19.4 36 36 W 17 28 30.16 1021 10 16.0934 0 0
6:52 pm 18:52 Mostly Clear 19 -7.2 -2 -18.9 39 39 W 21 33 30.19 1022 10 16.0934 0 0
7:52 pm 19:52 Mostly Clear 18 -7.8 -3 -19.4 39 39 WNW 14 22 30.22 1023 10 16.0934 0 0
8:52 pm 20:52 Mostly Clear 17 -8.3 -4 -20 39 39 NW 10 17 30.23 1024 10 16.0934 0 0
9:52 pm 21:52 Clear 17 -8.3 -2 -18.9 43 43 WNW 14 22 30.24 1024 10 16.0934 0 0
10:52 pm 22:52 Clear 17 -8.3 -2 -18.9 43 43 WNW 17 28 30.24 1024 10 16.0934 0 0
11:52 pm 23:52 Clear 16 -8.9 -2 -18.9 45 45 WNW 14 22 30.24 1024 10 16.0934 0 0

Powered by AerisWeather